User: anonymous   Login
Location: Melbourne
(37.8170°S, 144.9670°E)
Time: 01:25:14
(UTC+10:00)
Language:

ERBS - Orbit

View from above orbital plane
View from above orbital plane
View from above satellite
View from above satellite

Ground track
Ground track

The orbit data is extracted from the following two-line orbital elements,

1 15354U 84108B   15211.35845528  .00003541  00000-0  10808-3 0  9992
2 15354 057.0091 206.3816 0008498 226.3298 133.7050 15.36553851692197
Epoch (UTC): 30 July 2015 08:36:10
Eccentricity: 0.0008498
inclination: 57.0091°
perigee height: 450 km
apogee height: 462 km
right ascension of ascending node: 206.3816°
argument of perigee: 226.3298°
revolutions per day: 15.36553851
mean anomaly at epoch: 133.7050°
orbit number at epoch: 69219

The dashed part of the orbit path shows where the satellite is in the earth's shadow,  

DLR